Location: Stigler
(35.2540°N, 95.1230°W)
Time: 17:27:36
(UTC-05:00)

Daily predictions for brighter satellites

Satellite Brightness Start Highest point End
(mag) Time Altitude Azimuth Time Altitude Azimuth Time Altitude Azimuth
Okean 3 Rocket 4.0 19:29:13 10° N 19:33:35 45° E 19:37:55 10° SSE
Cosmos 1624 Rocket 4.2 19:28:53 10° N 19:33:55 48° ENE 19:38:54 10° SE
SL-16 R/B 2.2 19:36:14 10° SSW 19:41:53 73° ESE 19:47:34 10° NNE
USA 215 3.3 19:36:32 10° NE 19:43:05 73° SE 19:49:35 10° SW
Meteor 1-29 4.1 19:43:52 10° NE 19:46:42 23° E 19:49:30 10° SSE
MSX 4.4 19:42:49 10° S 19:48:29 64° W 19:54:12 10° NNW
ISS -1.1 19:48:39 10° SE 19:49:06 10° SE 19:49:30 10° ESE
Cosmos 1953 3.3 19:45:51 10° SE 19:49:08 25° E 19:52:26 10° NE
Cosmos 1072 Rocket 4.4 19:47:03 10° S 19:53:04 64° E 19:59:06 10° NNE
Helios 1A 3.7 19:52:20 10° SE 19:56:03 32° ENE 19:59:46 10° N
Cosmos 1805 3.9 19:56:28 10° SSE 19:59:59 33° E 20:03:33 10° NNE
H-2A R/B 4.4 20:01:10 15° E 20:01:47 16° ENE 20:04:10 10° NNE
SeaSat 1 3.6 19:58:28 10° ENE 20:02:06 20° ESE 20:05:43 10° SSE
METEOR-M 4.2 19:57:14 10° SSE 20:02:27 56° ENE 20:07:40 10° N
Cosmos 1544 4.3 19:59:58 10° SE 20:02:56 23° E 20:05:55 10° NE
Cosmos 1452 Rocket 4.2 19:58:28 10° N 20:03:13 33° ENE 20:07:30 12° SE
Cosmos 1378 3.0 20:01:43 10° N 20:05:27 75° E 20:09:09 10° S
CZ-4B DEB 4.3 20:06:22 19° ENE 20:06:28 19° ENE 20:08:50 10° NNE
SEDSat Delta rocket 4.3 20:00:32 10° WSW 20:07:06 61° S 20:12:12 18° E
Meteor 1-22 Rocket 4.4 20:02:07 10° SSW 20:07:29 71° W 20:12:47 10° N
ALOS 3.2 20:04:18 12° SE 20:07:45 28° ENE 20:11:43 10° NNE
Meteor 1-28 Rocket 3.6 20:04:29 10° N 20:08:11 65° WNW 20:11:51 10° SSW
OAO 3 Rocket 3.1 20:05:17 10° W 20:10:03 84° S 20:13:21 20° E
Cosmos 2278 Rocket 3.4 20:04:43 10° NW 20:10:05 45° WSW 20:15:25 10° S
FENGYUN 3A 4.3 20:06:43 10° SE 20:11:25 33° ENE 20:16:10 10° N
NOSS 3-2 (A) 3.9 20:07:11 10° SW 20:13:09 66° WNW 20:19:38 10° NNE
Cosmos 724 4.3 20:07:29 10° SSW 20:13:13 59° ESE 20:19:09 10° NE
Cosmos 2297 3.7 20:09:26 10° NNW 20:15:08 89° WSW 20:20:46 10° SSE
FREGAT/IRIS 3.2 20:16:44 10° S 20:19:47 59° W 20:22:50 10° NNW
SJ-6B 3.7 20:16:58 10° S 20:20:47 52° W 20:24:44 10° NNW
Meteor 1-24 Rocket 4.2 20:15:16 10° NNW 20:20:49 62° W 20:26:08 10° S
Cosmos 1766 Rocket 3.4 20:21:25 10° N 20:25:47 72° E 20:30:06 10° SSE
Cosmos 1943 4.3 20:21:50 10° SSE 20:33:10 - NE 20:25:09 23° ESE
Cosmos 2034 Rocket 3.9 20:21:17 10° S 20:27:31 82° E 20:33:51 10° N
Cosmos 2369 Rocket 3.8 20:25:17 10° NNE 20:28:46 16° NE 20:28:54 16° ENE
Cosmos 1603 3.6 20:23:26 10° S 20:29:05 66° ESE 20:34:48 10° NNE
Cosmos 1464 Rocket 4.3 20:23:49 10° SSW 20:30:03 69° W 20:36:15 10° N
Cosmos 1758 3.3 20:26:30 10° S 20:30:34 89° W 20:34:41 10° N
Timation 1 Rocket 4.3 20:27:26 10° NNW 20:33:26 90° W 20:39:23 10° SSE
Cosmos 1269 Rocket 4.0 20:32:50 10° S 20:38:01 61° ESE 20:43:14 10° NNE
Spot 2 Rocket 3.7 20:35:14 10° S 20:40:14 69° WSW 20:45:16 10° NNW
GPS 2-04 Rocket1 3.0 20:37:52 10° SW 20:41:01 40° SSE 20:41:01 40° SSE
Cosmos 1076 Rocket 4.2 20:38:03 10° NNW 20:42:17 56° W 20:46:31 10° S
Cosmos 1048 Rocket 4.0 20:37:09 10° S 20:42:20 57° ESE 20:47:30 10° NNE
Helios 1B rocket 3.5 20:39:45 10° N 20:43:42 46° WNW 20:47:37 10° SSW
Cosmos-2242 3.2 20:39:39 10° SSW 20:43:58 72° W 20:48:21 10° N
FengYun 1-2 T 4.2 20:38:51 10° SSE 20:44:23 87° WSW 20:49:54 10° NNW
ASTEX 1 3.2 20:41:42 10° NNE 20:46:36 66° E 20:51:26 10° S
SL-8 R/B 3.5 20:43:20 10° SW 20:48:07 83° SE 20:49:42 42° ENE
NOSS 3-3 (A) 4.5 20:40:31 10° NNW 20:48:08 89° ENE 20:53:58 20° SSE
NOSS 3-3 (C) 4.5 20:40:36 10° NNW 20:48:13 89° ENE 20:54:01 21° SSE
CENTAUR R/B 2.6 20:44:41 10° S 20:50:17 46° ESE 20:53:12 28° ENE
Cosmos 1674 4.0 20:49:50 10° N 20:51:56 28° NNE 20:51:56 28° NNE
Cosmos 1842 Rocket 3.4 20:55:05 66° ENE 20:55:05 66° ENE 20:59:13 10° NNE
ASTRO E2 3.3 20:54:55 10° WSW 20:58:31 45° SSW 20:58:31 45° SSW
Cosmos 1500 Rocket 4.0 20:55:38 10° N 20:59:06 47° NE 20:59:06 47° NE
Abrixas 4.4 21:00:30 10° WSW 21:02:06 28° WSW 21:02:06 28° WSW
Meteor 1-21 Rocket 4.4 20:58:38 10° NNW 21:04:10 71° W 21:09:02 13° S
Atlas Centaur 2 3.8 20:57:59 10° W 21:05:40 39° SSW 21:08:49 28° SSE
ATLAS CENTAUR R/B 4.2 21:05:25 10° W 21:07:14 13° WSW 21:08:58 10° SW
Resurs 01 Rocket 3.4 21:04:08 10° SSW 21:08:03 30° W 21:11:59 10° NW
ATLAS 5 CENTAUR R/B 3.8 21:10:56 10° WSW 21:15:00 27° NW 21:19:22 10° N
CZ-2D R/B 4.1 21:18:24 49° WNW 21:18:24 49° WNW 21:21:49 10° NNW
ISS -0.3 21:21:58 10° WSW 21:22:15 12° WSW 21:22:15 12° WSW
ERS-1 Rocket 4.4 21:34:55 29° N 21:34:55 29° N 21:37:23 10° N
Gbstr 26 Del rocket 4.4 21:28:44 10° SW 21:31:12 34° SW 21:31:12 34° SW
SeaSat 1 3.5 21:35:04 10° N 21:39:44 43° WNW 21:44:23 10° SW
ALOS 4.3 21:42:51 17° SW 21:45:07 24° W 21:48:55 10° NW
Cosmos 2369 Rocket 3.6 22:07:39 10° NNW 22:10:43 33° NW 22:10:43 33° NW
Cosmos 1943 Rocket 4.3 22:15:17 10° NNW 22:16:47 19° N 22:16:47 19° N
CENTAUR R/B 4.1 22:35:52 10° WSW 22:46:45 11° NNE 22:46:57 10° NNE
